START_TIME,STEP,MOV.,P11,t_acc.,P23,t_acc.,P27,t_acc.,A4,t_acc.
1979-07-30 00:41:34.170 ,0,0,0.,4.8,0.,4.8,0.,4.8,0.,4.8
1979-07-30 00:41:38.970 ,0,0,2.,4.8,1.,4.8,0.,4.8,0.,4.8
1979-07-30 00:41:43.770 ,0,0,1.,4.8,0.,4.8,0.,4.8,0.,4.8
1979-07-30 00:41:48.570 ,0,0,2.,4.8,0.,4.8,1.,4.8,0.,4.8
1979-07-30 00:41:53.370 ,0,0,0.,4.8,0.,4.8,0.,4.8,0.,4.8
1979-07-30 00:41:58.170 ,0,0,0.,4.8,0.,4.8,1.,4.8,0.,4.8
1979-07-30 00:42:02.970 ,0,0,1.,4.8,0.,4.8,0.,4.8,0.,4.8
1979-07-30 00:42:07.770 ,0,0,0.,4.8,0.,4.8,0.,4.8,0.,4.8
1979-07-30 00:42:12.570 ,0,0,0.,4.8,0.,4.8,0.,4.8,0.,4.8
1979-07-30 00:42:17.370 ,0,0,2.,4.8,0.,4.8,0.,4.8,0.,4.8
1979-07-30 00:43:10.170 ,0,0,1.,4.8,0.,4.8,0.,4.8,0.,4.8
1979-07-30 00:43:14.970 ,0,0,5.,4.8,0.,4.8,0.,4.8,0.,4.8
1979-07-30 00:43:19.770 ,0,0,1.,4.8,0.,4.8,0.,4.8,0.,4.8
1979-07-30 00:43:24.570 ,0,0,1.,4.8,0.,4.8,0.,4.8,0.,4.8
1979-07-30 00:43:29.370 ,0,0,0.,4.8,0.,4.8,0.,4.8,0.,4.8
1979-07-30 00:43:34.170 ,0,0,1.,4.8,0.,4.8,0.,4.8,0.,4.8
1979-07-30 00:43:38.970 ,0,0,1.,4.8,0.,4.8,0.,4.8,0.,4.8
1979-07-30 00:43:43.770 ,0,0,1.,4.8,0.,4.8,1.,4.8,0.,4.8
1979-07-30 00:43:48.570 ,0,0,2.,4.8,0.,4.8,0.,4.8,0.,4.8
1979-07-30 00:43:53.370 ,0,0,1.,4.8,0.,4.8,0.,4.8,0.,4.8
1979-07-30 00:43:58.170 ,4,0,2.,4.8,0.,4.8,0.,4.8,0.,4.8
1979-07-30 00:44:02.970 ,4,0,1.,4.8,0.,4.8,0.,4.8,0.,4.8
1979-07-30 00:44:07.770 ,4,0,0.,4.8,0.,4.8,0.,4.8,0.,4.8
1979-07-30 00:44:12.570 ,4,0,1.,4.8,0.,4.8,0.,4.8,0.,4.8
1979-07-30 00:44:17.370 ,4,0,2.,4.8,0.,4.8,0.,4.8,0.,4.8
1979-07-30 00:44:22.170 ,0,0,1.,4.8,0.,4.8,0.,4.8,0.,4.8
1979-07-30 00:44:26.970 ,0,0,1.,4.8,1.,4.8,0.,4.8,0.,4.8
1979-07-30 00:44:31.770 ,0,0,0.,4.8,0.,4.8,1.,4.8,0.,4.8
1979-07-30 00:44:36.570 ,0,0,1.,4.8,0.,4.8,0.,4.8,0.,4.8
1979-07-30 00:44:41.370 ,0,0,0.,4.8,0.,4.8,0.,4.8,0.,4.8
1979-07-30 00:44:46.770 ,3,0,0.,4.8,0.,4.8,0.,4.8,0.,4.8
1979-07-30 00:44:51.570 ,3,0,,0,,0,,0,,0
1979-07-30 00:44:56.370 ,3,0,2.,4.8,0.,4.8,0.,4.8,0.,4.8
1979-07-30 00:45:01.170 ,3,0,0.,4.8,1.,4.8,0.,4.8,0.,4.8
1979-07-30 00:45:05.970 ,3,0,2.,4.8,0.,4.8,0.,4.8,0.,4.8
1979-07-30 00:45:10.170 ,3,0,1.,4.8,0.,4.8,0.,4.8,0.,4.8
1979-07-30 00:45:14.970 ,3,0,0.,4.8,0.,4.8,0.,4.8,0.,4.8
1979-07-30 00:45:19.770 ,3,0,2.,4.8,0.,4.8,0.,4.8,0.,4.8
1979-07-30 00:45:24.570 ,3,0,,0,,0,,0,,0
1979-07-30 00:45:29.370 ,3,0,1.,4.8,0.,4.8,0.,4.8,0.,4.8
1979-07-30 00:45:34.170 ,2,0,2.,4.8,0.,4.8,0.,4.8,0.,4.8
1979-07-30 00:45:38.970 ,2,0,,0,,0,,0,,0
1979-07-30 00:45:43.770 ,2,0,,0,,0,,0,,0
1979-07-30 00:45:48.570 ,2,0,2.,4.8,0.,4.8,1.,4.8,0.,4.8
1979-07-30 00:45:53.370 ,2,0,,0,,0,,0,,0
1979-07-30 00:45:58.170 ,2,0,2.,4.8,0.,4.8,0.,4.8,0.,4.8
1979-07-30 00:46:02.970 ,2,0,,0,,0,,0,,0
1979-07-30 00:46:07.770 ,2,0,,0,,0,,0,,0
1979-07-30 00:46:12.570 ,2,0,1.,4.8,0.,4.8,0.,4.8,0.,4.8
1979-07-30 00:46:17.370 ,2,0,,0,,0,,0,,0
1979-07-30 00:46:22.170 ,1,0,,0,,0,,0,,0
1979-07-30 00:46:26.970 ,1,0,1.,4.8,0.,4.8,0.,4.8,0.,4.8
1979-07-30 00:46:31.770 ,1,0,,0,,0,,0,,0
1979-07-30 00:46:36.570 ,1,0,2.,4.8,0.,4.8,0.,4.8,0.,4.8
1979-07-30 00:46:41.370 ,1,0,1.,4.8,0.,4.8,0.,4.8,0.,4.8
1979-07-30 00:46:46.170 ,1,0,,0,,0,,0,,0
1979-07-30 00:46:50.970 ,1,0,,0,,0,,0,,0
1979-07-30 00:46:55.770 ,1,0,1.,4.8,0.,4.8,0.,4.8,0.,4.8
1979-07-30 00:47:00.570 ,1,0,,0,,0,,0,,0
1979-07-30 00:47:05.370 ,1,0,4.,4.8,0.,4.8,0.,4.8,0.,4.8
1979-07-30 00:47:10.170 ,0,0,,0,,0,,0,,0
1979-07-30 00:47:14.970 ,0,0,,0,,0,,0,,0
1979-07-30 00:47:19.770 ,0,0,1.,4.8,0.,4.8,0.,4.8,0.,4.8
1979-07-30 00:47:24.570 ,0,0,,0,,0,,0,,0
1979-07-30 00:47:29.370 ,0,0,3.,4.8,0.,4.8,0.,4.8,0.,4.8
1979-07-30 00:47:34.170 ,0,0,2.,4.8,0.,4.8,0.,4.8,0.,4.8
1979-07-30 00:47:38.970 ,0,0,,0,,0,,0,,0
1979-07-30 00:47:43.770 ,0,0,0.,4.8,0.,4.8,0.,4.8,0.,4.8
1979-07-30 00:47:48.570 ,0,0,0.,4.8,0.,4.8,0.,4.8,0.,4.8
1979-07-30 00:47:53.370 ,0,0,0.,4.8,0.,4.8,0.,4.8,0.,4.8
1979-07-30 00:47:58.170 ,0,0,1.,4.8,0.,4.8,0.,4.8,0.,4.8
1979-07-30 00:48:02.970 ,0,0,2.,4.8,0.,4.8,0.,4.8,0.,4.8
1979-07-30 00:48:07.770 ,0,0,1.,4.8,0.,4.8,0.,4.8,0.,4.8
1979-07-30 00:48:12.570 ,0,0,0.,4.8,0.,4.8,0.,4.8,0.,4.8
1979-07-30 00:48:17.370 ,0,0,1.,4.8,0.,4.8,0.,4.8,0.,4.8
1979-07-30 00:48:22.170 ,0,0,0.,4.8,0.,4.8,0.,4.8,0.,4.8
1979-07-30 00:48:26.970 ,0,0,1.,4.8,0.,4.8,0.,4.8,0.,4.8
1979-07-30 00:48:31.770 ,0,0,1.,4.8,0.,4.8,0.,4.8,0.,4.8
1979-07-30 00:48:36.570 ,0,0,0.,4.8,0.,4.8,0.,4.8,0.,4.8
1979-07-30 00:48:41.370 ,0,0,0.,4.8,0.,4.8,0.,4.8,0.,4.8
1979-07-30 00:48:46.170 ,1,0,0.,4.8,0.,4.8,0.,4.8,0.,4.8
1979-07-30 00:48:50.970 ,1,0,1.,4.8,0.,4.8,0.,4.8,0.,4.8
1979-07-30 00:48:55.770 ,1,0,2.,4.8,0.,4.8,0.,4.8,0.,4.8
1979-07-30 00:49:00.570 ,1,0,1.,4.8,0.,4.8,0.,4.8,0.,4.8
1979-07-30 00:49:05.370 ,1,0,1.,4.8,0.,4.8,0.,4.8,0.,4.8
1979-07-30 00:49:10.170 ,0,0,2.,4.8,0.,4.8,0.,4.8,0.,4.8
1979-07-30 00:49:14.970 ,0,0,0.,4.8,0.,4.8,0.,4.8,0.,4.8
1979-07-30 00:49:19.770 ,0,0,5.,4.8,0.,4.8,1.,4.8,0.,4.8
1979-07-30 00:49:24.570 ,0,0,0.,4.8,0.,4.8,0.,4.8,0.,4.8
1979-07-30 00:49:29.370 ,0,0,,0,,0,,0,,0
1979-07-30 00:52:26.970 ,0,0,,0,,0,,0,,0
1979-07-30 00:52:31.770 ,0,0,1.,4.8,0.,4.8,0.,4.8,0.,4.8
1979-07-30 00:52:36.570 ,0,0,,0,,0,,0,,0
1979-07-30 00:52:41.370 ,0,0,1.,4.8,0.,4.8,0.,4.8,0.,4.8
1979-07-30 00:52:46.170 ,0,0,1.,4.8,0.,4.8,0.,4.8,0.,4.8
1979-07-30 00:52:46.170 ,0,0,1.,4.8,0.,4.8,0.,4.8,0.,4.8
1979-07-30 00:52:50.970 ,0,0,3.,4.8,0.,4.8,0.,4.8,0.,4.8
1979-07-30 00:52:55.770 ,0,0,1.,4.8,0.,4.8,0.,4.8,0.,4.8
1979-07-30 00:53:00.570 ,0,0,0.,4.8,0.,4.8,0.,4.8,0.,4.8
1979-07-30 00:53:05.370 ,0,0,4.,4.8,0.,4.8,0.,4.8,1.,4.8
1979-07-30 00:53:10.170 ,0,0,1.,4.8,0.,4.8,0.,4.8,0.,4.8
1979-07-30 00:53:14.970 ,0,0,1.,4.8,0.,4.8,0.,4.8,0.,4.8
1979-07-30 00:53:19.770 ,0,0,2.,4.8,0.,4.8,0.,4.8,0.,4.8
1979-07-30 00:53:24.570 ,0,0,,0,,0,,0,,0
1979-07-30 00:53:29.370 ,0,0,,0,,0,,0,,0
1979-07-30 00:57:28.170 ,0,0,,0,,0,,0,,0
1979-07-30 00:57:32.970 ,0,0,,0,,0,,0,,0
1979-07-30 00:57:37.770 ,0,0,,0,,0,,0,,0
1979-07-30 00:57:42.570 ,0,0,,0,,0,,0,,0
1979-07-30 00:57:47.370 ,0,0,0.,4.8,0.,4.8,0.,4.8,0.,4.8
1979-07-30 00:57:34.170 ,3,0,2.,4.8,0.,4.8,0.,4.8,0.,4.8
1979-07-30 00:57:38.970 ,3,0,1.,4.8,0.,4.8,0.,4.8,0.,4.8
1979-07-30 00:57:43.770 ,3,0,3.,4.8,0.,4.8,0.,4.8,0.,4.8
1979-07-30 00:57:48.570 ,3,0,0.,4.8,0.,4.8,0.,4.8,0.,4.8
1979-07-30 00:57:53.370 ,3,0,2.,4.8,0.,4.8,0.,4.8,0.,4.8
1979-07-30 00:57:58.170 ,3,0,1.,4.8,0.,4.8,0.,4.8,0.,4.8
1979-07-30 00:58:02.970 ,3,0,1.,4.8,0.,4.8,0.,4.8,0.,4.8
1979-07-30 00:58:07.770 ,3,0,3.,4.8,0.,4.8,0.,4.8,0.,4.8
1979-07-30 00:58:12.570 ,3,0,3.,4.8,0.,4.8,0.,4.8,0.,4.8
1979-07-30 00:58:17.370 ,3,0,1.,4.8,0.,4.8,0.,4.8,0.,4.8
1979-07-30 00:58:22.170 ,2,0,1.,4.8,0.,4.8,0.,4.8,0.,4.8
1979-07-30 00:58:26.970 ,2,0,1.,4.8,0.,4.8,0.,4.8,0.,4.8
1979-07-30 00:58:31.770 ,2,0,0.,4.8,0.,4.8,0.,4.8,0.,4.8
1979-07-30 00:58:36.570 ,2,0,1.,4.8,0.,4.8,0.,4.8,0.,4.8
1979-07-30 00:58:41.370 ,2,0,2.,4.8,0.,4.8,0.,4.8,0.,4.8
1979-07-30 00:58:46.170 ,2,0,3.,4.8,0.,4.8,0.,4.8,0.,4.8
1979-07-30 00:58:50.970 ,2,0,3.,4.8,0.,4.8,0.,4.8,0.,4.8
1979-07-30 00:58:55.770 ,2,0,3.,4.8,0.,4.8,0.,4.8,0.,4.8
1979-07-30 00:59:00.570 ,2,0,2.,4.8,0.,4.8,0.,4.8,0.,4.8
1979-07-30 00:59:05.370 ,2,0,0.,4.8,0.,4.8,0.,4.8,0.,4.8
1979-07-30 00:59:10.170 ,1,0,1.,4.8,0.,4.8,0.,4.8,0.,4.8
1979-07-30 00:59:14.970 ,1,0,1.,4.8,0.,4.8,0.,4.8,0.,4.8
1979-07-30 00:59:19.770 ,1,0,0.,4.8,0.,4.8,0.,4.8,0.,4.8
1979-07-30 00:59:24.570 ,1,0,2.,4.8,0.,4.8,0.,4.8,0.,4.8
1979-07-30 00:59:29.370 ,1,0,1.,4.8,0.,4.8,0.,4.8,0.,4.8
1979-07-30 00:59:34.170 ,1,0,1.,4.8,0.,4.8,0.,4.8,0.,4.8
1979-07-30 00:59:38.970 ,1,0,0.,4.8,0.,4.8,0.,4.8,0.,4.8
1979-07-30 00:59:43.770 ,1,0,2.,4.8,0.,4.8,0.,4.8,0.,4.8
1979-07-30 00:59:48.570 ,1,0,1.,4.8,0.,4.8,0.,4.8,0.,4.8
1979-07-30 00:59:53.370 ,1,0,1.,4.8,0.,4.8,0.,4.8,0.,4.8
1979-07-30 00:59:58.170 ,0,0,0.,4.8,0.,4.8,0.,4.8,0.,4.8
1979-07-30 01:00:02.970 ,0,0,1.,4.8,0.,4.8,0.,4.8,0.,4.8
1979-07-30 01:00:07.770 ,0,0,1.,4.8,0.,4.8,0.,4.8,0.,4.8
1979-07-30 01:00:12.570 ,0,0,1.,4.8,0.,4.8,0.,4.8,0.,4.8
1979-07-30 01:00:17.370 ,0,0,2.,4.8,0.,4.8,0.,4.8,0.,4.8
1979-07-30 01:00:22.170 ,0,0,1.,4.8,0.,4.8,0.,4.8,0.,4.8
1979-07-30 01:00:26.970 ,0,0,1.,4.8,0.,4.8,0.,4.8,0.,4.8
1979-07-30 01:00:31.770 ,0,0,0.,4.8,0.,4.8,0.,4.8,0.,4.8
1979-07-30 01:00:36.570 ,0,0,1.,4.8,0.,4.8,0.,4.8,0.,4.8
1979-07-30 01:00:41.370 ,0,0,0.,4.8,0.,4.8,0.,4.8,0.,4.8
1979-07-30 01:00:46.170 ,0,0,1.,4.8,0.,4.8,0.,4.8,0.,4.8
1979-07-30 01:00:50.970 ,0,0,1.,4.8,0.,4.8,1.,4.8,0.,4.8
1979-07-30 01:00:55.770 ,0,0,3.,4.8,0.,4.8,0.,4.8,0.,4.8
1979-07-30 01:01:00.570 ,0,0,2.,4.8,0.,4.8,0.,4.8,0.,4.8
1979-07-30 01:01:05.370 ,0,0,2.,4.8,0.,4.8,0.,4.8,0.,4.8
1979-07-30 01:01:10.170 ,0,0,0.,4.8,0.,4.8,0.,4.8,0.,4.8
1979-07-30 01:01:14.970 ,0,0,2.,4.8,0.,4.8,0.,4.8,0.,4.8
1979-07-30 01:01:19.770 ,0,0,1.,4.8,0.,4.8,1.,4.8,0.,4.8
1979-07-30 01:01:24.570 ,0,0,2.,4.8,0.,4.8,0.,4.8,0.,4.8
1979-07-30 01:01:29.370 ,0,0,1.,4.8,0.,4.8,0.,4.8,0.,4.8
1979-07-30 01:01:34.170 ,1,0,1.,4.8,0.,4.8,0.,4.8,0.,4.8
1979-07-30 01:01:38.970 ,1,0,0.,4.8,0.,4.8,0.,4.8,0.,4.8
1979-07-30 01:01:43.770 ,1,0,2.,4.8,0.,4.8,0.,4.8,0.,4.8
1979-07-30 01:01:48.570 ,1,0,1.,4.8,0.,4.8,0.,4.8,0.,4.8
1979-07-30 01:01:53.370 ,1,0,0.,4.8,0.,4.8,0.,4.8,0.,4.8
1979-07-30 01:01:58.170 ,1,0,3.,4.8,0.,4.8,0.,4.8,0.,4.8
1979-07-30 01:02:02.970 ,1,0,1.,4.8,0.,4.8,1.,4.8,0.,4.8
1979-07-30 01:02:07.770 ,1,0,2.,4.8,0.,4.8,0.,4.8,0.,4.8
1979-07-30 01:02:12.570 ,1,0,2.,4.8,1.,4.8,0.,4.8,0.,4.8
1979-07-30 01:02:17.370 ,1,0,1.,4.8,0.,4.8,1.,4.8,0.,4.8
1979-07-30 01:02:22.170 ,2,0,0.,4.8,0.,4.8,0.,4.8,0.,4.8
1979-07-30 01:02:26.970 ,2,0,2.,4.8,0.,4.8,0.,4.8,0.,4.8
1979-07-30 01:02:31.770 ,2,0,3.,4.8,0.,4.8,0.,4.8,0.,4.8
1979-07-30 01:02:36.570 ,2,0,3.,4.8,0.,4.8,0.,4.8,0.,4.8
1979-07-30 01:02:41.370 ,2,0,2.,4.8,0.,4.8,0.,4.8,0.,4.8
1979-07-30 01:02:46.170 ,2,0,0.,4.8,0.,4.8,0.,4.8,0.,4.8
1979-07-30 01:02:50.970 ,2,0,0.,4.8,0.,4.8,0.,4.8,0.,4.8
1979-07-30 01:02:55.770 ,2,0,1.,4.8,0.,4.8,0.,4.8,0.,4.8
1979-07-30 01:03:00.570 ,2,0,2.,4.8,0.,4.8,0.,4.8,0.,4.8
1979-07-30 01:03:05.370 ,2,0,2.,4.8,0.,4.8,0.,4.8,0.,4.8
1979-07-30 01:03:10.170 ,3,0,1.,4.8,0.,4.8,0.,4.8,0.,4.8
1979-07-30 01:03:14.970 ,3,0,1.,4.8,0.,4.8,1.,4.8,0.,4.8
1979-07-30 01:03:19.770 ,3,0,0.,4.8,0.,4.8,0.,4.8,0.,4.8
1979-07-30 01:03:24.570 ,3,0,2.,4.8,0.,4.8,0.,4.8,0.,4.8
1979-07-30 01:03:29.370 ,3,0,0.,4.8,0.,4.8,0.,4.8,0.,4.8
1979-07-30 01:03:34.170 ,3,0,4.,4.8,0.,4.8,0.,4.8,0.,4.8
1979-07-30 01:03:38.970 ,3,0,0.,4.8,1.,4.8,0.,4.8,0.,4.8
1979-07-30 01:03:43.770 ,3,0,2.,4.8,0.,4.8,0.,4.8,0.,4.8
1979-07-30 01:03:48.570 ,3,0,2.,4.8,0.,4.8,0.,4.8,0.,4.8
1979-07-30 01:03:53.370 ,3,0,3.,4.8,0.,4.8,0.,4.8,0.,4.8
1979-07-30 01:03:58.170 ,4,0,0.,4.8,0.,4.8,0.,4.8,0.,4.8
1979-07-30 01:04:02.970 ,4,0,5.,4.8,0.,4.8,0.,4.8,0.,4.8
1979-07-30 01:04:07.770 ,4,0,1.,4.8,0.,4.8,0.,4.8,0.,4.8
1979-07-30 01:04:12.570 ,4,0,0.,4.8,0.,4.8,0.,4.8,0.,4.8
1979-07-30 01:04:17.370 ,4,0,0.,4.8,0.,4.8,0.,4.8,0.,4.8
1979-07-30 01:04:22.170 ,4,0,1.,4.8,0.,4.8,0.,4.8,0.,4.8
1979-07-30 01:04:26.970 ,4,0,0.,4.8,0.,4.8,0.,4.8,0.,4.8
1979-07-30 01:04:31.770 ,4,0,1.,4.8,0.,4.8,0.,4.8,0.,4.8
1979-07-30 01:04:36.570 ,4,0,1.,4.8,0.,4.8,0.,4.8,0.,4.8
1979-07-30 01:04:41.370 ,4,0,1.,4.8,0.,4.8,0.,4.8,0.,4.8
1979-07-30 01:04:46.170 ,5,0,3.,4.8,0.,4.8,0.,4.8,0.,4.8
1979-07-30 01:04:50.970 ,5,0,1.,4.8,0.,4.8,0.,4.8,0.,4.8
1979-07-30 01:04:55.770 ,5,0,1.,4.8,0.,4.8,0.,4.8,0.,4.8
1979-07-30 01:05:00.570 ,5,0,1.,4.8,0.,4.8,0.,4.8,0.,4.8
1979-07-30 01:05:05.370 ,5,0,2.,4.8,0.,4.8,0.,4.8,0.,4.8
1979-07-30 01:05:10.170 ,5,0,0.,4.8,0.,4.8,0.,4.8,0.,4.8
1979-07-30 01:05:14.970 ,5,0,2.,4.8,0.,4.8,0.,4.8,0.,4.8
1979-07-30 01:05:19.770 ,5,0,2.,4.8,0.,4.8,0.,4.8,0.,4.8
1979-07-30 01:05:24.570 ,5,0,1.,4.8,0.,4.8,0.,4.8,0.,4.8
1979-07-30 01:05:29.370 ,5,0,0.,4.8,0.,4.8,0.,4.8,0.,4.8
1979-07-30 01:05:34.170 ,6,0,1.,4.8,0.,4.8,0.,4.8,0.,4.8
1979-07-30 01:05:38.970 ,6,0,1.,4.8,0.,4.8,0.,4.8,0.,4.8
1979-07-30 01:05:43.770 ,6,0,1.,4.8,0.,4.8,0.,4.8,0.,4.8
1979-07-30 01:05:48.570 ,6,0,1.,4.8,0.,4.8,0.,4.8,0.,4.8
1979-07-30 01:05:53.370 ,6,0,4.,4.8,0.,4.8,0.,4.8,0.,4.8
1979-07-30 01:05:58.170 ,6,0,1.,4.8,0.,4.8,0.,4.8,0.,4.8
1979-07-30 01:06:02.970 ,6,0,2.,4.8,0.,4.8,0.,4.8,0.,4.8
1979-07-30 01:06:07.770 ,6,0,0.,4.8,0.,4.8,0.,4.8,0.,4.8
1979-07-30 01:06:12.570 ,6,0,3.,4.8,0.,4.8,0.,4.8,0.,4.8
1979-07-30 01:06:17.370 ,6,0,0.,4.8,0.,4.8,0.,4.8,0.,4.8
1979-07-30 01:06:22.170 ,7,0,3.,4.8,0.,4.8,0.,4.8,0.,4.8
1979-07-30 01:06:26.970 ,7,0,3.,4.8,0.,4.8,0.,4.8,0.,4.8
1979-07-30 01:06:31.770 ,7,0,1.,4.8,0.,4.8,0.,4.8,0.,4.8
1979-07-30 01:06:36.570 ,7,0,3.,4.8,0.,4.8,0.,4.8,0.,4.8
1979-07-30 01:06:41.370 ,7,0,0.,4.8,0.,4.8,0.,4.8,0.,4.8
1979-07-30 01:06:46.170 ,7,0,3.,4.8,0.,4.8,0.,4.8,0.,4.8
1979-07-30 01:06:50.970 ,7,0,1.,4.8,0.,4.8,0.,4.8,0.,4.8
1979-07-30 01:06:55.770 ,7,0,1.,4.8,0.,4.8,0.,4.8,0.,4.8
1979-07-30 01:07:00.570 ,7,0,0.,4.8,0.,4.8,0.,4.8,0.,4.8
1979-07-30 01:07:05.370 ,7,0,0.,4.8,1.,4.8,0.,4.8,0.,4.8
1979-07-30 01:07:10.170 ,3,1,1.,4.8,0.,4.8,0.,4.8,0.,4.8
1979-07-30 01:07:14.970 ,3,1,3.,4.8,0.,4.8,0.,4.8,0.,4.8
1979-07-30 01:07:19.770 ,3,1,1.,4.8,0.,4.8,0.,4.8,0.,4.8
1979-07-30 01:07:24.570 ,3,1,0.,4.8,0.,4.8,0.,4.8,0.,4.8
1979-07-30 01:07:29.370 ,3,1,4.,4.8,0.,4.8,0.,4.8,0.,4.8
1979-07-30 01:07:34.170 ,0,1,0.,4.8,0.,4.8,0.,4.8,0.,4.8
1979-07-30 01:07:38.970 ,0,1,2.,4.8,0.,4.8,0.,4.8,0.,4.8
1979-07-30 01:07:43.770 ,0,1,1.,4.8,0.,4.8,0.,4.8,0.,4.8
1979-07-30 01:07:48.570 ,0,1,0.,4.8,0.,4.8,0.,4.8,0.,4.8
1979-07-30 01:07:53.370 ,0,1,0.,4.8,0.,4.8,0.,4.8,0.,4.8
1979-07-30 01:07:58.170 ,4,1,2.,4.8,0.,4.8,0.,4.8,0.,4.8
1979-07-30 01:08:02.970 ,4,1,2.,4.8,0.,4.8,0.,4.8,0.,4.8
1979-07-30 01:08:07.770 ,4,1,1.,4.8,0.,4.8,0.,4.8,0.,4.8
1979-07-30 01:08:12.570 ,4,1,0.,4.8,0.,4.8,0.,4.8,0.,4.8
1979-07-30 01:08:17.370 ,4,1,2.,4.8,0.,4.8,0.,4.8,0.,4.8
1979-07-30 01:08:22.170 ,7,1,3.,4.8,0.,4.8,0.,4.8,0.,4.8
1979-07-30 01:08:26.970 ,7,1,0.,4.8,0.,4.8,0.,4.8,0.,4.8
1979-07-30 01:08:31.770 ,7,1,1.,4.8,0.,4.8,0.,4.8,0.,4.8
1979-07-30 01:08:36.570 ,7,1,0.,4.8,0.,4.8,1.,4.8,0.,4.8
1979-07-30 01:08:41.370 ,7,1,0.,4.8,0.,4.8,0.,4.8,0.,4.8
1979-07-30 01:08:46.170 ,3,1,0.,4.8,0.,4.8,0.,4.8,0.,4.8
1979-07-30 01:08:50.970 ,3,1,1.,4.8,0.,4.8,0.,4.8,0.,4.8
1979-07-30 01:08:55.770 ,3,1,2.,4.8,0.,4.8,0.,4.8,0.,4.8
1979-07-30 01:09:00.570 ,3,1,2.,4.8,0.,4.8,0.,4.8,0.,4.8
1979-07-30 01:09:05.370 ,3,1,0.,4.8,0.,4.8,0.,4.8,0.,4.8
1979-07-30 01:09:10.170 ,0,1,5.,4.8,1.,4.8,0.,4.8,0.,4.8
1979-07-30 01:09:14.970 ,0,1,1.,4.8,0.,4.8,0.,4.8,0.,4.8
1979-07-30 01:09:19.770 ,0,1,1.,4.8,0.,4.8,0.,4.8,0.,4.8
1979-07-30 01:09:24.570 ,0,1,1.,4.8,0.,4.8,0.,4.8,0.,4.8
1979-07-30 01:09:29.370 ,0,1,5.,4.8,0.,4.8,2.,4.8,0.,4.8
1979-07-30 01:09:34.170 ,4,1,3.,4.8,0.,4.8,0.,4.8,0.,4.8
1979-07-30 01:09:38.970 ,4,1,2.,4.8,0.,4.8,0.,4.8,0.,4.8
1979-07-30 01:09:43.770 ,4,1,1.,4.8,0.,4.8,0.,4.8,0.,4.8
1979-07-30 01:09:48.570 ,4,1,0.,4.8,0.,4.8,0.,4.8,0.,4.8
1979-07-30 01:09:53.370 ,4,1,1.,4.8,0.,4.8,0.,4.8,0.,4.8
1979-07-30 01:09:58.170 ,7,1,0.,4.8,1.,4.8,0.,4.8,0.,4.8
1979-07-30 01:10:02.970 ,7,1,0.,4.8,0.,4.8,0.,4.8,0.,4.8
1979-07-30 01:10:07.770 ,7,1,0.,4.8,0.,4.8,0.,4.8,0.,4.8
1979-07-30 01:10:12.570 ,7,1,2.,4.8,0.,4.8,0.,4.8,0.,4.8
1979-07-30 01:10:17.370 ,7,1,0.,4.8,0.,4.8,0.,4.8,0.,4.8
1979-07-30 01:10:22.170 ,3,1,2.,4.8,1.,4.8,0.,4.8,0.,4.8
1979-07-30 01:10:26.970 ,3,1,1.,4.8,0.,4.8,0.,4.8,0.,4.8
1979-07-30 01:10:31.770 ,3,1,1.,4.8,0.,4.8,0.,4.8,0.,4.8
1979-07-30 01:10:36.570 ,3,1,1.,4.8,0.,4.8,0.,4.8,0.,4.8
1979-07-30 01:10:41.370 ,3,1,4.,4.8,0.,4.8,0.,4.8,0.,4.8
1979-07-30 01:10:46.170 ,0,0,2.,4.8,0.,4.8,0.,4.8,0.,4.8
1979-07-30 01:10:50.970 ,0,0,4.,4.8,0.,4.8,1.,4.8,0.,4.8
1979-07-30 01:10:55.770 ,0,0,1.,4.8,0.,4.8,0.,4.8,0.,4.8
1979-07-30 01:11:00.570 ,0,0,0.,4.8,0.,4.8,0.,4.8,0.,4.8
1979-07-30 01:11:05.370 ,0,0,4.,4.8,0.,4.8,0.,4.8,0.,4.8
1979-07-30 01:11:12.570 ,0,0,,0,,0,,0,,0
1979-07-30 01:11:17.370 ,0,0,1.,4.8,0.,4.8,0.,4.8,0.,4.8
1979-07-30 01:11:22.170 ,0,0,2.,4.8,0.,4.8,0.,4.8,0.,4.8
1979-07-30 01:11:26.970 ,0,0,2.,4.8,0.,4.8,0.,4.8,0.,4.8
1979-07-30 01:11:31.770 ,0,0,0.,4.8,0.,4.8,0.,4.8,0.,4.8
1979-07-30 01:11:34.170 ,7,1,0.,4.8,0.,4.8,0.,4.8,0.,4.8
1979-07-30 01:11:38.970 ,7,1,1.,4.8,0.,4.8,0.,4.8,0.,4.8
1979-07-30 01:11:43.770 ,7,1,0.,4.8,0.,4.8,1.,4.8,0.,4.8
1979-07-30 01:11:48.570 ,7,1,1.,4.8,0.,4.8,0.,4.8,0.,4.8
1979-07-30 01:11:53.370 ,7,1,0.,4.8,1.,4.8,0.,4.8,0.,4.8
1979-07-30 01:11:58.170 ,3,1,1.,4.8,0.,4.8,0.,4.8,0.,4.8
1979-07-30 01:12:02.970 ,3,1,,0,,0,,0,,0
1979-07-30 01:12:07.770 ,3,1,1.,4.8,0.,4.8,0.,4.8,0.,4.8
1979-07-30 01:12:12.570 ,3,1,3.,4.8,0.,4.8,0.,4.8,0.,4.8
1979-07-30 01:12:17.370 ,3,1,2.,4.8,0.,4.8,1.,4.8,0.,4.8
1979-07-30 01:12:22.170 ,0,1,1.,4.8,0.,4.8,0.,4.8,0.,4.8
1979-07-30 01:12:26.970 ,0,1,0.,4.8,0.,4.8,0.,4.8,0.,4.8
1979-07-30 01:12:31.770 ,0,1,0.,4.8,0.,4.8,0.,4.8,0.,4.8
1979-07-30 01:12:36.570 ,0,1,1.,4.8,0.,4.8,0.,4.8,0.,4.8
1979-07-30 01:12:41.370 ,0,1,5.,4.8,0.,4.8,0.,4.8,0.,4.8
1979-07-30 01:12:46.170 ,4,1,2.,4.8,0.,4.8,0.,4.8,0.,4.8
1979-07-30 01:12:50.970 ,4,1,1.,4.8,0.,4.8,0.,4.8,0.,4.8
1979-07-30 01:12:55.770 ,4,1,2.,4.8,0.,4.8,0.,4.8,0.,4.8
1979-07-30 01:13:00.570 ,4,1,1.,4.8,0.,4.8,0.,4.8,0.,4.8
1979-07-30 01:13:05.370 ,4,1,2.,4.8,0.,4.8,0.,4.8,0.,4.8
1979-07-30 01:13:10.170 ,7,1,1.,4.8,0.,4.8,0.,4.8,0.,4.8
1979-07-30 01:13:14.970 ,7,1,1.,4.8,0.,4.8,0.,4.8,0.,4.8
1979-07-30 01:13:19.770 ,7,1,2.,4.8,0.,4.8,0.,4.8,0.,4.8
1979-07-30 01:13:24.570 ,7,1,0.,4.8,0.,4.8,0.,4.8,0.,4.8
1979-07-30 01:13:29.370 ,7,1,0.,4.8,0.,4.8,0.,4.8,0.,4.8
1979-07-30 01:13:34.170 ,3,1,0.,4.8,0.,4.8,0.,4.8,0.,4.8
1979-07-30 01:13:38.970 ,3,1,1.,4.8,0.,4.8,0.,4.8,0.,4.8
1979-07-30 01:13:43.770 ,3,1,1.,4.8,0.,4.8,1.,4.8,0.,4.8
1979-07-30 01:13:48.570 ,3,1,1.,4.8,0.,4.8,0.,4.8,0.,4.8
1979-07-30 01:13:53.370 ,3,1,0.,4.8,0.,4.8,0.,4.8,0.,4.8
1979-07-30 01:13:58.170 ,0,1,3.,4.8,0.,4.8,1.,4.8,0.,4.8
1979-07-30 01:14:02.970 ,0,1,0.,4.8,0.,4.8,0.,4.8,0.,4.8
1979-07-30 01:14:07.770 ,0,1,0.,4.8,0.,4.8,0.,4.8,0.,4.8
1979-07-30 01:14:12.570 ,0,1,1.,4.8,1.,4.8,0.,4.8,0.,4.8
1979-07-30 01:14:17.370 ,0,1,3.,4.8,0.,4.8,0.,4.8,0.,4.8
1979-07-30 01:14:22.170 ,4,1,1.,4.8,0.,4.8,0.,4.8,0.,4.8
1979-07-30 01:14:26.970 ,4,1,2.,4.8,0.,4.8,0.,4.8,0.,4.8
1979-07-30 01:14:31.770 ,4,1,2.,4.8,0.,4.8,0.,4.8,0.,4.8
1979-07-30 01:14:36.570 ,4,1,1.,4.8,0.,4.8,1.,4.8,0.,4.8
1979-07-30 01:14:41.370 ,4,1,1.,4.8,0.,4.8,0.,4.8,0.,4.8
1979-07-30 01:14:46.170 ,7,1,1.,4.8,0.,4.8,0.,4.8,0.,4.8
1979-07-30 01:14:50.970 ,7,1,3.,4.8,0.,4.8,0.,4.8,0.,4.8
1979-07-30 01:14:55.770 ,7,1,1.,4.8,0.,4.8,0.,4.8,0.,4.8
1979-07-30 01:15:00.570 ,7,1,1.,4.8,0.,4.8,1.,4.8,0.,4.8
1979-07-30 01:15:05.370 ,7,1,0.,4.8,0.,4.8,0.,4.8,0.,4.8
1979-07-30 01:15:10.170 ,3,1,0.,4.8,0.,4.8,0.,4.8,0.,4.8
1979-07-30 01:15:14.970 ,3,1,0.,4.8,0.,4.8,1.,4.8,0.,4.8
1979-07-30 01:15:19.770 ,3,1,2.,4.8,0.,4.8,0.,4.8,0.,4.8
1979-07-30 01:15:24.570 ,3,1,1.,4.8,0.,4.8,0.,4.8,0.,4.8
1979-07-30 01:15:29.370 ,3,1,3.,4.8,0.,4.8,0.,4.8,0.,4.8
1979-07-30 01:15:34.170 ,0,1,1.,4.8,1.,4.8,0.,4.8,0.,4.8
1979-07-30 01:15:38.970 ,0,1,1.,4.8,0.,4.8,0.,4.8,0.,4.8
1979-07-30 01:15:43.770 ,0,1,3.,4.8,0.,4.8,0.,4.8,0.,4.8
1979-07-30 01:15:48.570 ,0,1,1.,4.8,0.,4.8,0.,4.8,0.,4.8
1979-07-30 01:15:53.370 ,0,1,2.,4.8,0.,4.8,0.,4.8,0.,4.8
1979-07-30 01:15:58.170 ,4,1,0.,4.8,0.,4.8,0.,4.8,0.,4.8
1979-07-30 01:16:02.970 ,4,1,0.,4.8,0.,4.8,2.,4.8,0.,4.8
1979-07-30 01:16:07.770 ,4,1,0.,4.8,0.,4.8,0.,4.8,0.,4.8
1979-07-30 01:16:12.570 ,4,1,0.,4.8,0.,4.8,0.,4.8,0.,4.8
1979-07-30 01:16:17.370 ,4,1,0.,4.8,0.,4.8,0.,4.8,0.,4.8
1979-07-30 01:16:22.170 ,7,1,2.,4.8,0.,4.8,0.,4.8,0.,4.8
1979-07-30 01:16:26.970 ,7,1,3.,4.8,0.,4.8,0.,4.8,0.,4.8
1979-07-30 01:16:31.770 ,7,1,4.,4.8,0.,4.8,0.,4.8,0.,4.8
1979-07-30 01:16:36.570 ,7,1,3.,4.8,0.,4.8,0.,4.8,0.,4.8
1979-07-30 01:16:41.370 ,7,1,0.,4.8,0.,4.8,0.,4.8,0.,4.8
1979-07-30 01:16:46.170 ,3,1,0.,4.8,0.,4.8,0.,4.8,0.,4.8
1979-07-30 01:16:50.970 ,3,1,0.,4.8,0.,4.8,1.,4.8,0.,4.8
1979-07-30 01:16:55.770 ,3,1,1.,4.8,0.,4.8,0.,4.8,0.,4.8
1979-07-30 01:17:00.570 ,3,1,1.,4.8,0.,4.8,0.,4.8,0.,4.8
1979-07-30 01:17:05.370 ,3,1,0.,4.8,0.,4.8,0.,4.8,0.,4.8
1979-07-30 01:17:10.170 ,0,1,1.,4.8,0.,4.8,0.,4.8,0.,4.8
1979-07-30 01:17:14.970 ,0,1,0.,4.8,0.,4.8,0.,4.8,0.,4.8
1979-07-30 01:17:19.770 ,0,1,3.,4.8,0.,4.8,0.,4.8,0.,4.8
1979-07-30 01:17:24.570 ,0,1,1.,4.8,0.,4.8,1.,4.8,0.,4.8
1979-07-30 01:17:29.370 ,0,1,0.,4.8,0.,4.8,0.,4.8,0.,4.8
1979-07-30 01:17:34.170 ,0,0,5.,4.8,0.,4.8,0.,4.8,0.,4.8
1979-07-30 01:17:38.970 ,0,0,2.,4.8,0.,4.8,1.,4.8,0.,4.8
1979-07-30 01:17:43.770 ,0,0,0.,4.8,0.,4.8,0.,4.8,0.,4.8
1979-07-30 01:17:48.570 ,0,0,0.,4.8,0.,4.8,0.,4.8,0.,4.8
1979-07-30 01:17:53.370 ,0,0,1.,4.8,0.,4.8,0.,4.8,0.,4.8
1979-07-30 01:17:58.170 ,0,0,3.,4.8,0.,4.8,0.,4.8,0.,4.8
1979-07-30 01:18:02.970 ,0,0,0.,4.8,0.,4.8,0.,4.8,0.,4.8
1979-07-30 01:18:07.770 ,0,0,0.,4.8,0.,4.8,0.,4.8,0.,4.8
1979-07-30 01:18:12.570 ,0,0,1.,4.8,0.,4.8,1.,4.8,0.,4.8
1979-07-30 01:18:17.370 ,0,0,0.,4.8,0.,4.8,0.,4.8,0.,4.8
1979-07-30 01:18:22.170 ,5,0,2.,4.8,0.,4.8,0.,4.8,0.,4.8
1979-07-30 01:18:26.970 ,5,0,1.,4.8,0.,4.8,0.,4.8,0.,4.8
1979-07-30 01:18:31.770 ,5,0,0.,4.8,0.,4.8,1.,4.8,0.,4.8
1979-07-30 01:18:36.570 ,5,0,1.,4.8,0.,4.8,0.,4.8,0.,4.8
1979-07-30 01:18:41.370 ,5,0,1.,4.8,0.,4.8,0.,4.8,0.,4.8
1979-07-30 01:18:46.170 ,5,0,2.,4.8,0.,4.8,0.,4.8,0.,4.8
1979-07-30 01:18:50.970 ,5,0,3.,4.8,0.,4.8,0.,4.8,0.,4.8
1979-07-30 01:18:55.770 ,5,0,1.,4.8,0.,4.8,0.,4.8,0.,4.8
1979-07-30 01:19:00.570 ,5,0,2.,4.8,1.,4.8,0.,4.8,0.,4.8
1979-07-30 01:19:05.370 ,5,0,3.,4.8,0.,4.8,0.,4.8,0.,4.8
1979-07-30 01:19:10.170 ,4,0,1.,4.8,0.,4.8,1.,4.8,0.,4.8
1979-07-30 01:19:14.970 ,4,0,0.,4.8,0.,4.8,0.,4.8,0.,4.8
1979-07-30 01:19:19.770 ,4,0,1.,4.8,0.,4.8,0.,4.8,0.,4.8
1979-07-30 01:19:24.570 ,4,0,0.,4.8,0.,4.8,0.,4.8,0.,4.8
1979-07-30 01:19:29.370 ,4,0,1.,4.8,0.,4.8,1.,4.8,0.,4.8
1979-07-30 01:19:34.170 ,4,0,1.,4.8,0.,4.8,0.,4.8,0.,4.8
1979-07-30 01:19:38.970 ,4,0,5.,4.8,0.,4.8,0.,4.8,0.,4.8
1979-07-30 01:19:43.770 ,4,0,1.,4.8,0.,4.8,0.,4.8,0.,4.8
1979-07-30 01:19:48.570 ,4,0,2.,4.8,0.,4.8,0.,4.8,0.,4.8
1979-07-30 01:19:53.370 ,4,0,0.,4.8,0.,4.8,0.,4.8,0.,4.8
1979-07-30 01:19:58.170 ,3,0,2.,4.8,0.,4.8,0.,4.8,0.,4.8
1979-07-30 01:20:02.970 ,3,0,4.,4.8,0.,4.8,0.,4.8,0.,4.8
1979-07-30 01:20:07.770 ,3,0,0.,4.8,0.,4.8,0.,4.8,0.,4.8
1979-07-30 01:20:12.570 ,3,0,1.,4.8,0.,4.8,0.,4.8,0.,4.8
1979-07-30 01:20:17.370 ,3,0,2.,4.8,0.,4.8,0.,4.8,0.,4.8
1979-07-30 01:20:22.170 ,3,0,0.,4.8,0.,4.8,0.,4.8,0.,4.8
1979-07-30 01:20:26.970 ,3,0,1.,4.8,0.,4.8,0.,4.8,0.,4.8
1979-07-30 01:20:31.770 ,3,0,0.,4.8,0.,4.8,0.,4.8,0.,4.8
1979-07-30 01:20:36.570 ,3,0,1.,4.8,0.,4.8,0.,4.8,0.,4.8
1979-07-30 01:20:41.370 ,3,0,2.,4.8,0.,4.8,0.,4.8,0.,4.8
1979-07-30 01:20:46.170 ,2,0,1.,4.8,0.,4.8,0.,4.8,0.,4.8
1979-07-30 01:20:50.970 ,2,0,0.,4.8,0.,4.8,1.,4.8,0.,4.8
1979-07-30 01:20:55.770 ,2,0,0.,4.8,0.,4.8,0.,4.8,0.,4.8
1979-07-30 01:21:00.570 ,2,0,0.,4.8,0.,4.8,0.,4.8,0.,4.8
1979-07-30 01:21:05.370 ,2,0,2.,4.8,0.,4.8,0.,4.8,0.,4.8
1979-07-30 01:21:10.170 ,2,0,1.,4.8,0.,4.8,0.,4.8,0.,4.8
1979-07-30 01:21:14.970 ,2,0,0.,4.8,0.,4.8,1.,4.8,0.,4.8
1979-07-30 01:21:19.770 ,2,0,0.,4.8,0.,4.8,1.,4.8,0.,4.8
1979-07-30 01:21:24.570 ,2,0,1.,4.8,0.,4.8,0.,4.8,0.,4.8
1979-07-30 01:21:29.370 ,2,0,1.,4.8,0.,4.8,0.,4.8,0.,4.8
1979-07-30 01:21:34.170 ,1,0,2.,4.8,0.,4.8,0.,4.8,0.,4.8
1979-07-30 01:21:38.970 ,1,0,2.,4.8,0.,4.8,0.,4.8,0.,4.8
1979-07-30 01:21:43.770 ,1,0,0.,4.8,0.,4.8,0.,4.8,0.,4.8
1979-07-30 01:21:48.570 ,1,0,0.,4.8,0.,4.8,0.,4.8,0.,4.8
1979-07-30 01:21:53.370 ,1,0,1.,4.8,0.,4.8,0.,4.8,0.,4.8
1979-07-30 01:21:58.170 ,1,0,2.,4.8,0.,4.8,0.,4.8,0.,4.8
1979-07-30 01:22:02.970 ,1,0,4.,4.8,0.,4.8,0.,4.8,0.,4.8
1979-07-30 01:22:07.770 ,1,0,2.,4.8,0.,4.8,0.,4.8,0.,4.8
1979-07-30 01:22:12.570 ,1,0,0.,4.8,0.,4.8,0.,4.8,0.,4.8
1979-07-30 01:22:17.370 ,1,0,1.,4.8,0.,4.8,0.,4.8,0.,4.8